| time (UTC) | temp C | wind direction | speed KPH | gust KPH | rain 1hr cm | rain 24hr cm | rain mn cm | humidity % | barometer mb |
| 20260508144558 | 18 | 0 | 0.0 | 6.4 | 0.13 | 0.15 | 0.13 | 88 | 1014.6 |
| 20260508143054 | 19 | 0 | 0.0 | 4.8 | 0.03 | 0.05 | 0.03 | 87 | 1014.6 |
| 20260508141607 | 19 | 28 | 0.0 | 4.8 | 0.00 | 0.03 | 0.00 | 86 | 1014.2 |
| 20260508140106 | 19 | 0 | 0.0 | 3.2 | 0.00 | 0.03 | 0.00 | 86 | 1014.0 |
| 20260508134551 | 19 | 0 | 0.0 | 3.2 | 0.00 | 0.03 | 0.00 | 86 | 1013.8 |
| 20260508133054 | 19 | 0 | 0.0 | 3.2 | 0.00 | 0.03 | 0.00 | 86 | 1013.5 |
| 20260508131558 | 19 | 0 | 0.0 | 3.2 | 0.00 | 0.03 | 0.00 | 86 | 1013.6 |
| 20260508130052 | 18 | 0 | 0.0 | 3.2 | 0.00 | 0.03 | 0.00 | 86 | 1013.5 |
| 20260508124556 | 18 | 38 | 0.0 | 3.2 | 0.00 | 0.03 | 0.00 | 86 | 1013.7 |
| 20260508123055 | 18 | 0 | 0.0 | 4.8 | 0.00 | 0.03 | 0.00 | 86 | 1013.4 |
| 20260508121604 | 18 | 38 | 0.0 | 6.4 | 0.00 | 0.03 | 0.00 | 86 | 1013.6 |
| 20260508120100 | 18 | 0 | 0.0 | 4.8 | 0.00 | 0.03 | 0.00 | 86 | 1013.8 |
| 20260508114557 | 18 | 38 | 0.0 | 4.8 | 0.00 | 0.03 | 0.00 | 86 | 1013.4 |
| 20260508113059 | 18 | 0 | 0.0 | 0.0 | 0.00 | 0.03 | 0.00 | 87 | 1013.7 |
| 20260508111601 | 18 | 0 | 0.0 | 6.4 | 0.00 | 0.03 | 0.00 | 87 | 1013.9 |
| 20260508104556 | 18 | 0 | 0.0 | 3.2 | 0.00 | 0.03 | 0.00 | 87 | 1013.0 |
| 20260508103123 | 18 | 0 | 0.0 | 3.2 | 0.00 | 0.03 | 0.00 | 87 | 1013.1 |
| 20260508101604 | 18 | 0 | 0.0 | 6.4 | 0.00 | 0.03 | 0.00 | 87 | 1013.0 |
| 20260508100058 | 18 | 0 | 0.0 | 6.4 | 0.00 | 0.03 | 0.00 | 87 | 1013.2 |
| 20260508094607 | 19 | 0 | 0.0 | 1.6 | 0.00 | 0.03 | 0.00 | 87 | 1013.5 |
| 20260508093053 | 19 | 0 | 0.0 | 3.2 | 0.00 | 0.03 | 0.00 | 87 | 1013.6 |
| 20260508091551 | 19 | 0 | 0.0 | 3.2 | 0.00 | 0.03 | 0.00 | 86 | 1013.7 |
| 20260508090104 | 20 | 0 | 0.0 | 3.2 | 0.00 | 0.03 | 0.00 | 85 | 1013.6 |
| 20260508084554 | 20 | 36 | 0.0 | 6.4 | 0.00 | 0.03 | 0.00 | 85 | 1013.6 |
| 20260508083115 | 20 | 0 | 0.0 | 3.2 | 0.00 | 0.03 | 0.00 | 84 | 1013.6 |
| 20260508081555 | 20 | 0 | 1.6 | 6.4 | 0.00 | 0.03 | 0.00 | 85 | 1013.6 |
| 20260508080056 | 20 | 0 | 0.0 | 0.0 | 0.00 | 0.03 | 0.00 | 85 | 1013.5 |
| 20260508074556 | 20 | 0 | 0.0 | 0.0 | 0.00 | 0.03 | 0.00 | 85 | 1013.4 |
| 20260508073054 | 20 | 0 | 0.0 | 0.0 | 0.00 | 0.03 | 0.00 | 84 | 1013.5 |
| 20260508071556 | 20 | 0 | 0.0 | 4.8 | 0.00 | 0.03 | 0.00 | 84 | 1013.3 |
| 20260508070053 | 20 | 0 | 0.0 | 0.0 | 0.00 | 0.03 | 0.00 | 84 | 1013.2 |
| 20260508064601 | 20 | 0 | 0.0 | 1.6 | 0.00 | 0.03 | 0.00 | 84 | 1013.9 |
| 20260508063052 | 20 | 0 | 0.0 | 0.0 | 0.00 | 0.03 | 0.00 | 84 | 1014.0 |
| 20260508061556 | 20 | 0 | 0.0 | 3.2 | 0.00 | 0.03 | 0.00 | 83 | 1013.9 |
| 20260508060052 | 20 | 0 | 0.0 | 4.8 | 0.00 | 0.03 | 0.00 | 83 | 1013.7 |
| 20260508054600 | 21 | 0 | 0.0 | 3.2 | 0.00 | 0.03 | 0.00 | 82 | 1013.7 |
| 20260508053055 | 21 | 0 | 0.0 | 3.2 | 0.00 | 0.03 | 0.00 | 82 | 1013.6 |
| 20260508051555 | 21 | 0 | 0.0 | 6.4 | 0.00 | 0.03 | 0.00 | 82 | 1013.5 |
| 20260508050054 | 21 | 0 | 0.0 | 4.8 | 0.00 | 0.03 | 0.00 | 82 | 1013.5 |
| 20260508044553 | 21 | 0 | 0.0 | 3.2 | 0.00 | 0.05 | 0.03 | 82 | 1013.5 |
| 20260508043059 | 21 | 0 | 0.0 | 3.2 | 0.00 | 0.05 | 0.03 | 82 | 1014.3 |
| 20260508041557 | 21 | 0 | 0.0 | 6.4 | 0.00 | 0.05 | 0.03 | 81 | 1014.3 |
| 20260508040053 | 21 | 0 | 0.0 | 4.8 | 0.00 | 0.05 | 0.03 | 81 | 1014.7 |
| 20260508034558 | 22 | 35 | 0.0 | 3.2 | 0.00 | 0.05 | 0.03 | 80 | 1014.6 |
| 20260508033054 | 22 | 0 | 0.0 | 1.6 | 0.00 | 0.05 | 0.03 | 79 | 1014.9 |
| 20260508031557 | 22 | 0 | 0.0 | 4.8 | 0.00 | 0.05 | 0.03 | 79 | 1014.9 |
| 20260508030054 | 22 | 0 | 1.6 | 8.0 | 0.00 | 0.05 | 0.03 | 79 | 1014.3 |
| 20260508024553 | 22 | 0 | 0.0 | 3.2 | 0.00 | 0.05 | 0.03 | 80 | 1014.4 |
| 20260508023052 | 22 | 0 | 0.0 | 4.8 | 0.00 | 0.05 | 0.03 | 79 | 1014.5 |
| 20260508021553 | 23 | 0 | 0.0 | 8.0 | 0.00 | 0.05 | 0.03 | 79 | 1014.3 |
| 20260508020053 | 23 | 0 | 0.0 | 3.2 | 0.00 | 0.05 | 0.03 | 81 | 1014.3 |
| 20260508014555 | 23 | 0 | 0.0 | 0.0 | 0.00 | 0.05 | 0.03 | 81 | 1014.1 |
| 20260508013050 | 23 | 27 | 0.0 | 1.6 | 0.00 | 0.05 | 0.03 | 80 | 1014.4 |
| 20260508011549 | 23 | 0 | 0.0 | 3.2 | 0.00 | 0.05 | 0.03 | 80 | 1014.1 |
| 20260508010050 | 23 | 0 | 0.0 | 3.2 | 0.00 | 0.05 | 0.03 | 80 | 1013.9 |
| 20260508004550 | 23 | 0 | 0.0 | 3.2 | 0.00 | 0.05 | 0.03 | 79 | 1014.1 |
| 20260508003100 | 24 | 0 | 0.0 | 4.8 | 0.00 | 0.05 | 0.03 | 79 | 1014.2 |
| 20260508001559 | 24 | 0 | 0.0 | 3.2 | 0.00 | 0.05 | 0.03 | 78 | 1014.2 |
| 20260508000100 | 24 | 0 | 0.0 | 4.8 | 0.00 | 0.05 | 0.03 | 78 | 1013.9 |
| 20260507234554 | 24 | 0 | 0.0 | 4.8 | 0.00 | 0.05 | 0.03 | 78 | 1013.8 |
| 20260507233052 | 25 | 0 | 0.0 | 8.0 | 0.00 | 0.05 | 0.03 | 77 | 1013.9 |
| 20260507231555 | 25 | 0 | 0.0 | 4.8 | 0.00 | 0.05 | 0.03 | 77 | 1013.9 |
| 20260507230052 | 25 | 0 | 0.0 | 4.8 | 0.00 | 0.05 | 0.03 | 77 | 1013.8 |
| 20260507224615 | 25 | 0 | 1.6 | 8.0 | 0.00 | 0.05 | 0.03 | 77 | 1013.6 |
| 20260507223056 | 25 | 303 | 0.0 | 8.0 | 0.00 | 0.05 | 0.03 | 77 | 1013.7 |
| 20260507221551 | 25 | 69 | 0.0 | 9.7 | 0.00 | 0.05 | 0.03 | 77 | 1013.8 |
| 20260507220051 | 25 | 71 | 0.0 | 8.0 | 0.00 | 0.05 | 0.03 | 76 | 1013.8 |
| 20260507214553 | 25 | 0 | 0.0 | 4.8 | 0.00 | 0.05 | 0.03 | 77 | 1013.7 |
| 20260507213054 | 25 | 0 | 0.0 | 4.8 | 0.00 | 0.05 | 0.03 | 77 | 1013.7 |
| 20260507211609 | 25 | 0 | 0.0 | 3.2 | 0.00 | 0.05 | 0.03 | 76 | 1013.9 |
| 20260507210054 | 25 | 0 | 0.0 | 6.4 | 0.00 | 0.05 | 0.03 | 76 | 1014.2 |
| 20260507204559 | 25 | 299 | 0.0 | 8.0 | 0.00 | 0.05 | 0.03 | 78 | 1014.3 |
| 20260507203051 | 25 | 62 | 1.6 | 9.7 | 0.00 | 0.05 | 0.03 | 77 | 1014.5 |
| 20260507201609 | 25 | 59 | 1.6 | 8.0 | 0.00 | 0.05 | 0.03 | 76 | 1014.7 |
| 20260507194558 | 25 | 0 | 0.0 | 9.7 | 0.00 | 0.05 | 0.03 | 78 | 1015.0 |
| 20260507193104 | 24 | 0 | 0.0 | 3.2 | 0.00 | 0.05 | 0.03 | 78 | 1015.0 |
| 20260507191556 | 23 | 45 | 0.0 | 9.7 | 0.00 | 0.05 | 0.03 | 79 | 1015.1 |
| 20260507190053 | 23 | 339 | 0.0 | 3.2 | 0.00 | 0.05 | 0.03 | 79 | 1015.5 |
| 20260507184554 | 23 | 0 | 0.0 | 6.4 | 0.00 | 0.05 | 0.03 | 80 | 1015.4 |
| 20260507183059 | 22 | 25 | 0.0 | 12.9 | 0.00 | 0.05 | 0.03 | 81 | 1015.6 |
| 20260507181551 | 22 | 70 | 1.6 | 8.0 | 0.00 | 0.05 | 0.03 | 81 | 1015.9 |
| 20260507180052 | 21 | 101 | 1.6 | 9.7 | 0.00 | 0.05 | 0.03 | 82 | 1015.9 |
| 20260507174553 | 20 | 0 | 0.0 | 4.8 | 0.00 | 0.05 | 0.03 | 82 | 1016.2 |
| 20260507173101 | 20 | 0 | 0.0 | 6.4 | 0.00 | 0.05 | 0.03 | 83 | 1016.3 |
| 20260507171558 | 19 | 0 | 0.0 | 6.4 | 0.00 | 0.05 | 0.03 | 83 | 1016.3 |
| 20260507170056 | 19 | 0 | 0.0 | 6.4 | 0.00 | 0.05 | 0.03 | 83 | 1016.2 |
| 20260507164551 | 19 | 26 | 0.0 | 14.5 | 0.03 | 0.08 | 0.03 | 83 | 1016.1 |
| 20260507163049 | 18 | 42 | 1.6 | 11.3 | 0.03 | 0.08 | 0.03 | 84 | 1016.2 |
| 20260507161551 | 18 | 0 | 0.0 | 11.3 | 0.03 | 0.08 | 0.03 | 84 | 1016.3 |
| 20260507160052 | 18 | 0 | 1.6 | 8.0 | 0.03 | 0.08 | 0.03 | 84 | 1016.3 |
| 20260507154555 | 18 | 0 | 1.6 | 8.0 | 0.00 | 0.05 | 0.00 | 84 | 1016.5 |
| 20260507153058 | 17 | 0 | 0.0 | 16.1 | 0.00 | 0.05 | 0.00 | 85 | 1016.5 |
| 20260507151551 | 17 | 0 | 3.2 | 9.7 | 0.00 | 0.05 | 0.00 | 85 | 1016.4 |
| 20260507150055 | 17 | 0 | 0.0 | 6.4 | 0.00 | 0.05 | 0.00 | 85 | 1016.1 |